www.pogodaiklimat.ru

Погода и климат >> Архив погоды >> Украина >> Овруч


ПОГОДА в Овруче

  • Прогноз погоды в Овруче
  • Монитор погоды в Овруче

АРХИВ ПОГОДЫ в Овруче

Время (UTC), дата Ветер
(напр.,м/с)
 
Видим.   Явления Облачность Т
(С)
Тd
(С)
f
(%)
Тe
(С)
Тes
(С)
Комфортность P
(гПа)
Po
(гПа)
Тmin
(С)
Tmax
(С)
R
(мм)
R24
(мм)
S
(см)
00 13.06 штиль 0 10 км ясно +19.6 +17.0 85 +22 +22 комфорт 1016.5 996.5
03 13.06 штиль 0 10 км 3/0
[Ci fib]
+17.4 +15.7 90 +17 +18 1017.2 997.1
06 13.06 В 1 10 км 4/0
[Ci fib]
+25.6 +17.2 60 +30 +38 душно 1017.6 998.0 +17.4
09 13.06 В 2 10 км 6/4 1000 м
[Cu hum Ci sp]
+30.0 +14.9 40 +32 +42 жарко 1017.5 998.2
12 13.06 В 2 10 км 4/4 1000 м
[Cu hum]
+31.5 +15.0 37 +34 +42 душно 1017.2 998.0
15 13.06 В 2 10 км 4/4 600 м
[Cu med, cong]
+31.8 +14.0 34 +33 +36 жарко 1016.4 997.2
18 13.06 штиль 0 10 км 8/6 700 м
[Cb calv Ci sp]
+27.1 +15.8 50 +30 +30 душно 1017.1 997.6 +32.1
21 13.06 штиль 0 10 км 3/0
[Ci sp]
+23.0 +16.1 65 +27 +27 душно 1019.1 999.3
00 14.06 штиль 0 10 км ясно +20.8 +17.4 81 +24 +24 комфорт 1019.0 999.1
03 14.06 штиль 0 10 км 8/0
[Ci fib]
+19.0 +16.4 85 +20 +21 1019.4 999.3
06 14.06 В 1 10 км 6/0
[Ci fib]
+23.9 +19.2 75 +29 +37 душно 1019.2 999.5 +19.0
09 14.06 ЮВ 1 10 км 4/3 600 м
[Cb calv Ci fib]
+29.2 +17.0 48 +33 +46 очень
душно
1018.7 999.3
12 14.06 ЮВ 2 10 км {гроза} 4/4 600 м
[Cu med, cong]
+29.0 +16.5 47 +32 +41 душно 1017.9 998.5
15 14.06 Ю 1 10 км 8/4 600 м
[Cu med, cong Ci]
+30.6 +15.8 41 +33 +36 душно 1016.9 997.6
18 14.06 штиль 0 10 км 3/0
[Ci]
+25.4 +17.1 60 +29 +29 душно 1017.0 997.4 +31.0
21 14.06 СЗ 1 10 км 8/0
[Ci]
+21.4 +17.0 76 +25 +25 комфорт 1017.6 997.7
00 15.06 штиль 0 10 км 3/0
[Ci fib]
+20.0 +16.6 81 +22 +22 комфорт 1017.7 997.7
03 15.06 штиль 0 10 км 4/0
[Ac trans Ci fib]
+19.4 +16.4 83 +21 +22 комфорт 1017.3 997.3
06 15.06 штиль 0 10 км 3/0
[Ci sp]
+25.2 +17.9 64 +30 +39 душно 1017.3 997.7 +19.0
09 15.06 С 1 10 км ясно +28.6 +16.8 49 +32 +52 опасность
солнечного
удара
1016.7 997.3
12 15.06 штиль 0 10 км ясно +30.8 +13.1 34 +32 +52 опасность
солнечного
удара
1015.0 995.8
15 15.06 С 1 10 км 3/3 1000 м
[Cu hum]
+31.0 +14.2 36 +33 +37 душно 1013.9 994.7
18 15.06 штиль 0 10 км ясно +25.0 +15.9 57 +28 +28 жарко 1013.9 994.3 +31.6
21 15.06 штиль 0 10 км 4/0
[Ac trans]
+20.7 +15.7 73 +24 +24 комфорт 1014.3 994.4
00 16.06 штиль 0 10 км 3/0
[Ac trans]
+19.2 +14.4 74 +20 +20 1014.7 994.7
03 16.06 штиль 0 10 км 3/0
[Ac trans]
+18.8 +13.9 73 +20 +20 1014.2 994.2
06 16.06 С 1 10 км 3/0
[Ci fib]
+23.1 +16.6 67 +28 +36 душно 1014.3 994.6 +18.5
09 16.06 З 1 10 км 10/0
[Cs]
+26.8 +15.5 50 +30 +45 душно 1014.3 994.8
12 16.06 В 1 10 км 9/0
[Ci fib]
+29.2 +12.6 36 +30 +44 жарко 1013.7 994.4
15 16.06 В 1 10 км 8/3 1000 м
[Cu hum Ci fib]
+29.5 +12.0 34 +30 +34 жарко 1012.7 993.4
18 16.06 штиль 0 10 км 8/0
[Ac trans Ci fib]
+25.2 +18.6 67 +30 +30 душно 1013.0 993.5 +30.1
21 16.06 З 2 4000 м гроза, ливневой дождь 10/10 630 м
[Cb calv]
+18.2 +16.5 90 +19 +19 1014.8 994.8
00 17.06 штиль 0 4000 м дымка {гроза, ливн. осадки} 8/4 600 м
[Cb calv Ac trans]
+17.8 +16.7 93 +18 +18 1015.1 995.0
03 17.06 штиль 0 4000 м дымка 9/0
[Ac cuf Ci fib]
+17.0 +16.3 96 +17 +17 1015.4 995.3
06 17.06 штиль 0 10 км ясно +20.8 +16.6 77 +24 +34 комфорт 1015.3 995.4 +17.0 17
09 17.06 СВ 1 65 км 3/0
[Ci fib]
+25.7 +16.8 58 +29 +48 душно 1015.1 995.6
12 17.06 С 1 10 км 3/3 1000 м
[Cu hum]
+28.7 +19.0 56 +34 +46 очень
душно
1014.5 995.2
15 17.06 З 2 10 км 8/3 600 м
[Cu hum Ci fib]
+27.1 +20.2 66 +33 +36 очень
душно
1014.8 995.4
18 17.06 З 1 10 км 9/0
[Ci fib]
+23.5 +19.8 80 +29 +29 душно 1015.9 996.2 +28.9
21 17.06 З 2 10 км 7 баллов +19.3 +17.3 88
00 18.06 штиль 0 10 км 6/0 100 м
[Ci sp]
+17.5 +15.7 89 +17 +17 1018.0 997.9
03 18.06 СЗ 1 4000 м дымка 4/0
[Ci sp]
+15.5 +14.3 93 +16 +17 1018.5 998.2
06 18.06 СЗ 1 10 км 3/3 1000 м
[Cu med, cong]
+20.6 +15.8 74 +25 +31 комфорт 1018.4 998.5 +15.4
09 18.06 З 1 10 км 8/8 720 м
[Cb calv]
+23.4 +16.7 66 +28 +32 душно 1018.4 998.6
12 18.06 СЗ 2 10 км 6/6 600 м
[Cb calv]
+24.4 +16.1 60 +28 +34 душно 1017.8 998.1
15 18.06 СЗ 1 10 км 2 балла +24.5 +16.5 61
18 18.06 штиль 0 10 км 3/0
[Ac trans Ci fib]
+22.5 +19.8 85 +29 +29 очень
душно
1016.8 997.0 +25.7
21 18.06 штиль 0 10 км 2 балла +18.1 +15.7 86
00 19.06 штиль 0 10 км 3/0
[Ci fib]
+16.9 +14.7 87 +17 +17 1018.1 997.9
03 19.06 Ю 1 10 км 2 балла +15.4 +13.8 90
06 19.06 штиль 0 10 км 1/0
[Ci fib]
+23.0 +18.5 76 +29 +39 очень
душно
1017.8 998.0 +15.4
09 19.06 В 2 10 км 6/6 960 м
[Cu hum]
+26.1 +14.2 48 +28 +35 жарко 1017.3 997.7
12 19.06 В 1 10 км 4 балла +27.7 +13.6 42
15 19.06 штиль 0 10 км 2 балла +28.3 +13.0 39
18 19.06 штиль 0 10 км 7 баллов +23.1 +16.4 66 +28.4

 

Местоположение метеостанции Овруч (Житомирская область, Украина): широта 51.32 долгота 28.78 высота над уровнем моря 170 м.

В архиве по умолчанию представлена погода в Овруче за последнюю неделю. Архивные данные за месяц целиком и за предыдущие месяцы, начиная с января 2011 года, Вы можете получить, выбрав интересующий диапазон дат из раскрывающегося списка и нажав кнопку "Ввод!".


*Определитесь, кто Вы:
робот инопланетянин человек

Внимание! Время в таблицах - всемирное. Для получения местного времени необходимо прибавить поправку, которая равна 2 ч.

Смотрите также архив погоды в соседних городах и на ближайших метеорологических станциях:

Погода в Коростени (Житомирская область, Украина) (42 км)
Погода в Олевске (Житомирская область, Украина) (77 км)
Погода в Мозыре (Гомельская область, Беларусь) (85 км)
Погода в Тетереве (Киевская область, Украина) (89 км)
Погода в Чернобыле (Киевская область, Украина) (101 км)
Погода в Новограде-Волынском (Житомирская область, Украина) (114 км)
Погода в Брагине (Гомельская область, Беларусь) (115 км)
Погода в Житковичах (Гомельская область, Беларусь) (118 км)
Погода в Житомире (Житомирская область, Украина) (121 км)
Погода в Василевичах (Гомельская область, Беларусь) (127 км)

Пояснения к столбцам:

Ветер - указаны скорость ветра в м/с - средняя за 10 мин, порывы в срок и между сроками (в фигурных скобках) и направление, откуда дует ветер: С - северный, СВ - северо-восточный, В - восточный, ЮВ - юго-восточный, Ю - южный, ЮЗ - юго-западный, З - западный, СЗ - северо-западный.
Видимость - горизонтальная дальность видимости в метрах или километрах. При видимости от 1 до 10 км при отсутствии осадков обычно наблюдается дымка, при ухудшении видимости до 1 км и менее - туман. В сухую погоду видимость может ухудшаться дымом, пылью или мглою.
Явления - указаны атмосферные явления, наблюдавшиеся в срок или в последний час перед сроком; фигурными скобками обозначены явления, наблюдавшиеся между сроками (за 1-3 часа до срока); квадратными скобками обозначены град или гололедные отложения с указанием их диаметра в мм.
Облачность - указаны через наклонную черту общая и нижняя облачность в баллах и высота нижней границы облаков в метрах; квадратными скобками обозначены формы облаков: Ci - перистые, Cs - перисто-слоистые, Cc - перисто-кучевые, Ac - высококучевые, As - высокослоистые, Sc - слоисто-кучевые, Ns - слоисто-дождевые, Cu - кучевые, Cb - кучево-дождевые. Подробнее классификацию облаков см. в Атласе облаков (PDF).
T - Температура воздуха - температура, измеренная на высоте 2 м над землей.
Td - Температура точки росы - температура, при понижении до которой содержащийся в воздухе водяной пар достигнет насыщения.
f - Относительная влажность воздуха - влажноcть воздуха, измеренная на высоте 2 м над землей.
Te - Эффективная температура - температура, которую ощущает одетый по сезону человек в тени. Характеристика душности погоды. При расчете учитывается влияние влажности воздуха и скорости ветра на теплоощущения человека.
Tes - Эффективная температура на солнце - температура, которую ощущает человек, с поправкой на солнечный нагрев. Характеристика знойности погоды. Зависит от высоты солнца над горизонтом, облачности и скорости ветра. Ночью, в пасмурную погоду, а также при ветре 12 м/с и более поправка равна нулю.
P - Атмосферное давление - приведенное к уровню моря атмосферное давление.
Po - Атмосферное давление - измеренное на уровне метеостанции атмосферное давление.
Tmin - Минимальная температура - минимум температуры воздуха на высоте 2 м над землей.
Tmax - Максимальная температура - максимум температуры воздуха на высоте 2 м над землей.
R - Количество осадков - Количество выпавших осадков за период времени, мм. При наведении курсора мыши на число - период времени, за который выпало указанное количество осадков.
R24 - Количество осадков - Количество выпавших осадков за 24 часа, мм.
S - Снежный покров - Высота снежного покрова, см. При наведении курсора мыши на число - состояние снежного покрова и степень покрытия местности в баллах.